Change the Weather History Date:

Tuesday, September 10, 2013

  Actual Average Record
Temperature  
Mean Temperature 64 °F -  
Max Temperature 75 °F - - ()
Min Temperature 53 °F - - ()
Degree Days  
Heating Degree Days 1    
Growing Degree Days 14 (Base 50)    
Moisture  
Dew Point 56 °F    
Average Humidity 78    
Maximum Humidity 100    
Minimum Humidity 47    
Precipitation  
Precipitation 0.00 in - - ()
Sea Level Pressure  
Sea Level Pressure 30.03 in    
Wind  
Wind Speed 5 mph ()    
Max Wind Speed 29 mph    
Max Gust Speed 42 mph    
Visibility 6.2 miles    
Events Rain , Thunderstorm    
T = Trace of Precipitation, MM = Missing Value Source: Averaged Metar Reports

Daily Weather History Graph

Daily Weather History Graph

Search for Another Location

Airport or City:

Trip Planner

Search our weather history database for the weather conditions in past years. The results will help you decide how hot, cold, wet, or windy it might be!

Date:

Astronomy

Sep. 10, 2013 Rise Set
Actual Time 6:20 AM CEST 7:12 PM CEST
Civil Twilight 5:49 AM CEST 7:43 PM CEST
Nautical Twilight 5:12 AM CEST 8:20 PM CEST
Astronomical Twilight 4:33 AM CEST 8:59 PM CEST
Moon 11:51 AM CEST (9/10) 9:36 PM CEST (9/10)
Length of Visible Light 13h 53m
Length of Day
12h 51m
Waxing Crescent, 25% of the Moon is Illuminated
Sep 10
Waxing Crescent
Sep 12
First Quarter
Sep 19
Full
Sep 27
Last Quarter
Oct 5
New

Hourly Weather History & Observations

Time (CEST) Temp. Dew Point Humidity Pressure Visibility Wind Dir Wind Speed Gust Speed Precip Events Conditions
12:15 AM 59.0 °F 57.2 °F 94% 30.12 in - Calm Calm - N/A   Clear
12:45 AM 57.2 °F 55.4 °F 94% 30.12 in - South 2.2 mph - N/A   Clear
1:15 AM 55.4 °F 55.4 °F 100% 30.12 in - SSE 4.5 mph - N/A   Clear
1:45 AM 55.4 °F 55.4 °F 100% 30.12 in - SSE 4.5 mph - N/A   Clear
2:15 AM 55.4 °F 53.6 °F 94% 30.12 in - South 4.5 mph - N/A   Clear
2:45 AM 55.4 °F 53.6 °F 94% 30.12 in - SSE 2.2 mph - N/A   Clear
3:15 AM 53.6 °F 53.6 °F 100% 30.12 in - South 4.5 mph - N/A   Clear
3:45 AM 53.6 °F 53.6 °F 100% 30.12 in - SSE 2.2 mph - N/A   Clear
4:15 AM 55.4 °F 55.4 °F 100% 30.12 in - South 6.7 mph - N/A   Clear
4:45 AM 55.4 °F 55.4 °F 100% 30.09 in - SSE 2.2 mph - N/A   Clear
5:15 AM 55.4 °F 55.4 °F 100% 30.09 in - SSE 2.2 mph - N/A   Clear
5:45 AM 55.4 °F 55.4 °F 100% 30.09 in - South 2.2 mph - N/A   Clear
6:15 AM 55.4 °F 55.4 °F 100% 30.09 in - Calm Calm - N/A   Clear
6:45 AM 55.4 °F 55.4 °F 100% 30.09 in - SE 4.5 mph - N/A   Clear
7:15 AM 57.2 °F 55.4 °F 94% 30.09 in - SE 2.2 mph - N/A   Clear
7:45 AM 57.2 °F 55.4 °F 94% 30.09 in - SSE 2.2 mph - N/A   Clear
8:15 AM 57.2 °F 57.2 °F 100% 30.09 in - South 2.2 mph - N/A   Clear
8:45 AM 59.0 °F 59.0 °F 100% 30.09 in - SSW 4.5 mph - N/A   Clear
9:15 AM 60.8 °F 59.0 °F 94% 30.09 in - South 4.5 mph - N/A   Clear
9:45 AM 64.4 °F 59.0 °F 83% 30.09 in - SSE 4.5 mph - N/A   Clear
10:15 AM 66.2 °F 59.0 °F 78% 30.06 in - South 6.7 mph - N/A   Clear
10:45 AM 68.0 °F 55.4 °F 64% 30.06 in - South 6.7 mph - N/A   Clear
11:15 AM 68.0 °F 55.4 °F 64% 30.06 in - South 6.7 mph - N/A   Clear
11:45 AM 68.0 °F 53.6 °F 60% 30.06 in - South 8.9 mph - N/A   Clear
12:15 PM 68.0 °F 55.4 °F 64% 30.06 in - South 8.9 mph - N/A   Clear
12:45 PM 69.8 °F 55.4 °F 60% 30.06 in 6.2 mi South 8.9 mph - N/A   Mostly Cloudy
1:15 PM 71.6 °F 55.4 °F 57% 30.04 in 6.2 mi South 8.9 mph - N/A   Mostly Cloudy
1:45 PM 71.6 °F 53.6 °F 53% 30.04 in 6.2 mi South 13.4 mph - N/A   Mostly Cloudy
2:15 PM 75.2 °F 53.6 °F 47% 30.01 in 6.2 mi South 8.9 mph - N/A   Mostly Cloudy
2:45 PM 73.4 °F 55.4 °F 53% 30.01 in 6.2 mi South 11.2 mph - N/A   Mostly Cloudy
3:15 PM 73.4 °F 55.4 °F 53% 29.98 in 6.2 mi SSE 13.4 mph - N/A   Mostly Cloudy
3:45 PM 71.6 °F 55.4 °F 57% 29.98 in 6.2 mi SSE 8.9 mph - N/A   Scattered Clouds
4:15 PM 71.6 °F 55.4 °F 57% 29.98 in 6.2 mi South 11.2 mph - N/A   Scattered Clouds
4:45 PM 71.6 °F 55.4 °F 57% 29.98 in 6.2 mi South 11.2 mph - N/A   Scattered Clouds
5:15 PM 71.6 °F 55.4 °F 57% 29.98 in 6.2 mi South 11.2 mph - N/A   Scattered Clouds
5:45 PM 71.6 °F 57.2 °F 60% 29.95 in 6.2 mi SSE 8.9 mph - N/A   Mostly Cloudy
6:15 PM 71.6 °F 57.2 °F 60% 29.95 in 6.2 mi SSE 8.9 mph - N/A   Mostly Cloudy
6:45 PM 69.8 °F 57.2 °F 64% 29.95 in 6.2 mi ESE 6.7 mph - N/A   Scattered Clouds
7:15 PM 68.0 °F 57.2 °F 68% 29.92 in 6.2 mi ESE 6.7 mph - N/A   Scattered Clouds
7:45 PM 66.2 °F 59.0 °F 78% 29.92 in 6.2 mi SE 8.9 mph - N/A   Mostly Cloudy
8:15 PM 64.4 °F 57.2 °F 77% 29.92 in 6.2 mi SE 6.7 mph - N/A   Mostly Cloudy
8:45 PM 64.4 °F 57.2 °F 77% 29.95 in 6.2 mi ESE 4.5 mph - N/A   Mostly Cloudy
9:15 PM 64.4 °F 57.2 °F 77% 29.95 in 6.2 mi SSE 2.2 mph - N/A   Mostly Cloudy
9:45 PM 64.4 °F 55.4 °F 73% 29.95 in 6.2 mi SSE 8.9 mph - N/A   Mostly Cloudy
10:15 PM 66.2 °F 55.4 °F 68% 29.95 in 6.2 mi SE 4.5 mph - N/A   Mostly Cloudy
10:45 PM 66.2 °F 57.2 °F 73% 29.95 in 6.2 mi ESE 4.5 mph - N/A   Mostly Cloudy
11:15 PM 64.4 °F 57.2 °F 77% 29.95 in 6.2 mi West 8.9 mph - N/A   Mostly Cloudy
11:28 PM 64.4 °F 57.2 °F 77% 29.98 in 5.0 mi WNW 22.4 mph 40.3 mph N/A Rain , Thunderstorm Light Thunderstorms and Rain
11:45 PM 59.0 °F 53.6 °F 82% 30.01 in 6.2 mi NNW 29.1 mph 42.5 mph N/A Rain , Thunderstorm Light Thunderstorms and Rain
11:52 PM 57.2 °F 53.6 °F 88% 30.01 in 6.2 mi North 20.1 mph 31.3 mph N/A Rain Rain Showers